This is the latest recevied weather packets stored in our database for station/object DB0TGO-14. If no packets are shown the sender has not sent any weather packets the latest 1 day(s).
| Time | Temp. | Humidity | Pressure | Rain* | Wind** | Luminosity | Snow |
|---|---|---|---|---|---|---|---|
| 1778022790 | 12.22° C | 95% | 1008.2 hPa | 0 mm | 1.34 m/s, 45° | - | - |
| 1778022670 | 12.22° C | 95% | 1008.3 hPa | 0 mm | 0.89 m/s, 0° | - | - |
| 1778022646 | 12.22° C | 94% | 1008.2 hPa | 0 mm | 0.89 m/s, 338° | - | - |
| 1778022555 | 12.22° C | 94% | 1008.2 hPa | 0 mm | 0.89 m/s, 68° | - | - |
| 1778022435 | 12.22° C | 94% | 1008.2 hPa | 0 mm | 0.89 m/s, 22° | - | - |
| 1778022325 | 12.22° C | 94% | 1008.2 hPa | 0 mm | 0.89 m/s, 22° | - | - |
| 1778022205 | 12.22° C | 94% | 1008.1 hPa | 0 mm | 0.45 m/s, 90° | - | - |
| 1778022090 | 12.22° C | 94% | 1008.2 hPa | 0 mm | 0.45 m/s, 112° | - | - |
| 1778021975 | 12.22° C | 93% | 1008.3 hPa | 0 mm | 0.45 m/s, 22° | - | - |
| 1778021858 | 12.22° C | 93% | 1008.2 hPa | 0 mm | 0.89 m/s, 22° | - | - |
| 1778021757 | 12.22° C | 93% | 1008.2 hPa | 0 mm | 0.89 m/s, 22° | - | - |
| 1778021650 | 12.22° C | 93% | 1008.3 hPa | 0 mm | 1.34 m/s, 22° | - | - |
| 1778021597 | 12.22° C | 93% | 1008.3 hPa | 0 mm | 1.34 m/s, 22° | - | - |
| 1778021551 | 12.22° C | 93% | 1008.2 hPa | 0 mm | 1.34 m/s, 45° | - | - |
| 1778021453 | 12.22° C | 93% | 1008.3 hPa | 0 mm | 1.79 m/s, 45° | - | - |
| 1778021350 | 12.22° C | 93% | 1008.3 hPa | 0 mm | 1.79 m/s, 45° | - | - |
| 1778021235 | 12.22° C | 92% | 1008.3 hPa | 0 mm | 1.79 m/s, 45° | - | - |
| 1778021135 | 12.22° C | 92% | 1008.3 hPa | 0 mm | 1.34 m/s, 0° | - | - |
| 1778021017 | 12.22° C | 92% | 1008.3 hPa | 0 mm | 1.34 m/s, 22° | - | - |
| 1778020915 | 12.22° C | 92% | 1008.4 hPa | 0 mm | 1.34 m/s, 45° | - | - |
| 1778020815 | 12.22° C | 92% | 1008.3 hPa | 0 mm | 0.89 m/s, 22° | - | - |
| 1778020698 | 12.22° C | 92% | 1008.3 hPa | 0 mm | 0.89 m/s, 68° | - | - |
| 1778020615 | 12.22° C | 92% | 1008.3 hPa | 0 mm | 0.89 m/s, 45° | - | - |
| 1778020595 | 12.22° C | 92% | 1008.4 hPa | 0 mm | 0.89 m/s, 68° | - | - |
| 1778020497 | 12.22° C | 92% | 1008.4 hPa | 0 mm | 1.34 m/s, 68° | - | - |
* Rain latest hour (hover to see other rain measurements)
** Current wind speed in m/s (hover to see current wind gust speed)